SCP
0 0 0 0 0 0 0 0 0 0 0 0 0 0 0 0 0 0 0 0 0 0 0 0 0 0 0 0 0 0 0 0 0 0 0 0 0 0 0 0 0 0 0
0 0 0 0 0 0 0 0 0 0 0 0 0 0 0 0 0 0 0 0 0 0 0 0 0 0 0 0 0 0 0 0 0 0 0 0 0 0 0 0 0 0 0
0 0 0 0 0 0 0 0 0 0 0 0 0 0 0 0 0 0 0 0 0 0 0 0 0 0 0 0 0 0 0 0 0 0 0 0 0 0 0 0 0 0 0
0 0 0 0 0 0 0 0 0 0 0 0 0 0 0 0 0 0 0 0 0 0 0 0 0 0 0 0 0 0 0 0 0 0 0 0 0 0 0 0 0 0 0
0 0 0 0 0 0 0 0 0 0 0 0 0 0 0 0 0 0 0 0 0 0 0 0 0 0 0 0 0 0 0 0 0 0 0 0 0 0 0 0 0 0 0
0 0 0 0 0 0 0 0 0 0 0 0 0 0 0 0 0 0 0 0 0 0 0 0 0 0 0 0 0 0 0 0 0 0 0 0 0 0 0 0 0 0 0
0 0 0 0 0 0 0 0 0 0 0 0 0 0 0 0 0 0 0 0 0 0 0 0 0 0 0 0 0 0 0 0 0 0 0 0 0 0 0 0 0 0 0
0 0 0 0 0 0 0 0 0 0 0 0 0 0 0 0 0 0 0 0 0 0 0 0 0 0 0 0 0 0 0 0 0 0 0 0 0 0 0 0 0 0 0
0 0 0 0 0 0 0 0 0 0 0 0 0 0 0 0 0 0 0 0 0 0 0 0 0 0 0 0 0 0 0 0 0 0 0 0 0 0 0 0 0 0 0
0 0 0 0 0 0 0 0 0 0 0 0 0 0 0 0 0 0 0 0 0 0 0 0 0 0 0 0 0 0 0 0 0 0 0 0 0 0 0 0 0 0 0
0 0 0 0 0 0 0 0 0 0 0 0 0 0 0 0 0 0 0 0 0 0 0 0 0 0 0 0 0 0 0 0 0 0 0 0 0 0 0 0 0 0 0
0 0 0 0 0 0 0 0 0 0 0 0 0 0 0 0 0 0 0 0 0 0 0 0 0 0 0 0 0 0 0 0 0 0 0 0 0 0 0 0 0 0 0
0 0 0 0 0 0 0 0 0 0 0 0 0 0 0 0 0 0 0 0 0 0 0 0 0 0 0 0 0 0 0 0 0 0 0 0 0 0 0 0 0 0 0
0 0 0 0 0 0 0 0 0 0 0 0 0 0 0 0 0 0 0 0 0 0 0 0 0 0 0 0 0 0 0 0 0 0 0 0 0 0 0 0 0 0 0
0 0 0 0 0 0 0 0 0 0 0 0 0 0 0 0 0 0 0 0 0 0 0 0 0 0 0 0 0 0 0 0 0 0 0 0 0 0 0 0 0 0 0
0 0 0 0 0 0 0 0 0 0 0 0 0 0 0 0 0 0 0 0 0 0 0 0 0 0 0 0 0 0 0 0 0 0 0 0 0 0 0 0 0 0 0
0 0 0 0 0 0 0 0 0 0 0 0 0 0 0 0 0 0 0 0 0 0 0 0 0 0 0 0 0 0 0 0 0 0 0 0 0 0 0 0 0 0 0
0 0 0 0 0 0 0 0 0 0 0 0 0 0 0 0 0 0 0 0 0 0 0 0 0 0 0 0 0 0 0 0 0 0 0 0 0 0 0 0 0 0 0
0 0 0 0 0 0 0 0 0 0 0 0 0 0 0 0 0 0 0 0 0 0 0 0 0 0 0 0 0 0 0 0 0 0 0 0 0 0 0 0 0 0 0
0 0 0 0 0 0 0 0 0 0 0 0 0 0 0 0 0 0 0 0 0 0 0 0 0 0 0 0 0 0 0 0 0 0 0 0 0 0 0 0 0 0 0
0 0 0 0 0 0 0 0 0 0 0 0 0 0 0 0 0 0 0 0 0 0 0 0 0 0 0 0 0 0 0 0 0 0 0 0 0 0 0 0 0 0 0
0 0 0 0 0 0 0 0 0 0 0 0 0 0 0 0 0 0 0 0 0 0 0 0 0 0 0 0 0 0 0 0 0 0 0 0 0 0 0 0 0 0 0
0 0 0 0 0 0 0 0 0 0 0 0 0 0 0 0 0 0 0 0 0 0 0 0 0 0 0 0 0 0 0 0 0 0 0 0 0 0 0 0 0 0 0
0 0 0 0 0 0 0 0 0 0 0 0 0 0 0 0 0 0 0 0 0 0 0 0 0 0 0 0 0 0 0 0 0 0 0 0 0 0 0 0 0 0 0
0 0 0 0 0 0 0 0 0 0 0 0 0 0 0 0 0 0 0 0 0 0 0 0 0 0 0 0 0 0 0 0 0 0 0 0 0 0 0 0 0 0 0
0 0 0 0 0 0 0 0 0 0 0 0 0 0 0 0 0 0 0 0 0 0 0 0 0 0 0 0 0 0 0 0 0 0 0 0 0 0 0 0 0 0 0
Wind_Speed
2 2 2 2 2 2 2 2 3 3 4 4 5 6 6 5 5 5 4 10 11 11 12 12 12 12 11 11 11 11 11 10 10 9 9 8 7 6 6 6 6 6 6
2 2 2 2 2 2 2 2 3 3 3 3 4 5 5 5 5 5 4 6 10 10 11 12 12 12 11 11 11 10 10 10 10 10 9 9 8 7 6 6 6 6 6
3 3 2 2 2 2 3 3 4 3 3 3 4 4 4 4 4 4 4 4 4 8 10 11 11 11 11 11 11 11 10 10 10 10 9 9 9 9 8 6 6 5 6
4 3 2 2 2 2 2 2 3 3 3 3 3 3 3 3 4 3 3 4 3 4 6 9 10 10 11 11 11 11 10 9 9 9 9 9 9 9 9 8 7 6 6
4 3 2 2 3 3 2 3 2 2 2 2 1 2 2 2 2 3 3 4 4 4 3 6 9 10 11 11 11 12 11 10 9 9 9 8 9 9 9 8 7 7 6
4 3 2 3 3 3 3 3 3 2 2 2 2 2 2 2 2 3 3 3 4 4 4 4 4 5 10 11 11 11 11 10 9 9 9 9 9 9 8 8 7 6 6
4 3 3 3 3 3 2 3 2 3 2 2 2 2 2 2 2 2 2 2 3 3 3 4 3 3 4 9 10 11 11 11 10 9 9 9 9 8 8 8 7 6 6
4 3 3 3 3 2 3 3 3 2 2 2 1 1 1 2 2 1 2 2 3 2 3 4 4 4 4 3 7 10 10 10 10 10 9 8 8 8 8 8 7 6 6
3 3 3 3 3 3 2 2 3 3 2 2 2 1 1 0 1 2 2 2 2 2 2 2 4 4 5 4 3 7 10 10 9 10 9 9 9 8 7 7 7 7 7
3 3 3 3 3 2 2 2 2 1 2 2 2 2 1 1 1 1 2 1 2 2 2 3 3 3 4 3 4 7 8 9 9 9 9 9 9 9 8 8 8 7 6
2 2 2 2 2 2 2 2 2 2 1 1 1 2 3 2 1 1 1 1 1 1 1 2 2 2 3 3 2 5 7 7 8 8 8 8 8 8 8 9 9 8 8
1 2 3 3 2 2 2 2 2 2 1 1 1 1 1 1 1 0 1 1 0 1 0 1 1 2 2 2 3 5 5 5 6 6 6 7 7 7 8 8 8 8 8
1 1 2 2 2 1 2 2 1 1 1 1 1 1 1 1 1 0 0 1 0 1 0 0 1 1 2 2 2 4 4 4 5 5 5 6 6 6 7 7 8 8 8
1 1 1 1 1 1 2 2 1 1 2 1 2 2 1 2 2 1 0 0 1 1 1 1 0 1 1 1 2 3 2 3 3 4 4 5 5 6 6 6 7 7 8
2 2 1 1 1 1 1 1 1 1 2 2 2 2 1 1 1 1 1 0 1 0 1 1 0 0 0 1 1 1 1 2 3 3 4 4 4 5 6 6 6 7 7
2 2 1 1 1 1 1 1 1 1 0 1 1 1 2 1 2 1 1 1 1 1 1 1 1 0 0 0 1 1 1 2 2 3 3 3 4 5 5 6 6 7 7
2 2 1 1 1 1 1 1 1 1 1 1 1 1 2 2 2 1 1 1 1 1 0 1 1 1 1 1 1 0 1 1 1 2 2 2 3 4 5 5 6 7 7
1 2 2 1 1 0 1 1 0 1 1 1 2 2 2 2 2 1 0 1 1 1 0 1 1 1 1 1 0 0 0 0 1 1 2 1 1 2 3 4 5 6 7
1 1 2 1 1 1 0 0 0 0 1 1 1 2 2 2 2 2 1 1 1 1 0 0 1 1 1 1 1 1 1 1 1 1 1 1 1 1 1 3 4 5 5
1 1 2 2 1 1 1 0 1 1 1 1 1 1 2 1 2 2 1 1 1 0 0 0 1 1 1 1 1 1 1 1 1 1 1 1 1 1 0 1 2 3 3
2 1 1 1 1 1 0 1 1 1 1 1 1 1 1 1 2 2 1 1 1 0 1 1 1 1 1 1 1 1 1 2 2 0 1 1 1 1 1 2 1 2 2
1 1 2 2 1 0 0 2 2 1 1 1 1 1 1 0 2 3 3 3 1 1 1 1 1 1 2 2 1 2 1 1 2 1 0 2 1 1 1 2 2 1 1
2 1 2 2 2 2 1 1 3 2 2 1 1 1 1 1 1 1 3 3 3 3 2 2 1 2 2 2 2 2 1 1 2 2 0 2 1 2 2 1 1 1 2
2 1 2 2 2 2 2 1 3 2 2 1 1 1 0 0 1 1 1 1 1 2 2 1 1 2 2 2 2 3 3 2 2 1 0 1 2 2 2 1 3 2 3
2 2 2 2 2 2 2 1 1 2 2 2 1 1 0 0 2 3 1 1 1 1 2 2 3 4 4 4 2 1 1 1 2 2 1 1 2 2 2 2 3 4 4
2 2 2 2 2 2 2 1 1 1 2 2 1 1 1 1 3 4 1 1 2 2 2 2 3 4 3 3 3 2 2 1 1 2 1 1 1 1 2 2 1 2 3
Wind_Direction
69 65 60 49 31 30 33 25 35 39 35 32 39 54 63 70 78 80 80 77 74 70 68 68 67 65 64 62 61 61 59 56 55 57 57 55 53 55 56 55 53 52 49
76 72 63 50 32 22 24 29 40 43 47 42 45 49 57 67 75 85 90 81 76 70 69 67 65 62 60 61 59 59 58 57 54 52 50 49 46 45 50 51 48 48 45
73 73 63 51 35 27 30 29 36 39 41 41 47 49 60 53 69 78 91 93 84 73 72 70 65 62 58 55 55 56 55 55 54 50 47 48 45 44 44 46 45 46 44
71 59 49 45 45 35 28 40 37 37 42 32 33 39 59 58 58 67 81 86 90 88 78 76 69 63 59 55 53 53 54 54 53 47 45 48 48 46 44 47 45 44 45
60 67 50 42 45 44 27 34 47 46 49 31 32 48 54 64 52 55 64 76 80 91 95 80 74 67 61 56 53 50 49 50 50 48 48 48 49 47 42 42 42 41 41
46 48 55 53 49 45 27 25 28 41 52 29 36 53 56 61 50 56 53 63 68 73 88 90 81 67 63 58 53 48 45 43 44 48 48 47 45 42 37 35 37 37 37
51 49 43 52 52 54 35 28 30 33 35 36 49 29 35 63 56 64 64 70 68 61 71 86 86 78 67 56 48 46 42 39 39 43 46 44 41 37 33 29 31 32 34
45 47 45 54 54 55 40 33 39 32 8 28 47 28 14 10 6 58 71 79 72 57 64 73 80 81 78 64 44 43 39 37 37 39 42 42 38 34 32 30 27 29 31
50 51 48 50 56 60 49 43 44 44 9 355 18 53 76 338 328 3 47 71 78 64 55 64 75 80 80 72 57 41 42 36 35 36 37 37 34 31 29 29 32 32 33
50 47 52 57 53 51 57 44 47 45 37 358 349 2 22 115 123 332 341 26 74 82 70 59 64 76 82 78 65 51 46 38 33 32 32 32 31 30 30 31 32 34 35
54 48 46 66 64 56 57 41 42 40 43 28 11 354 359 356 17 114 287 320 2 20 84 85 83 84 87 88 83 59 52 42 33 29 26 27 29 29 30 32 33 31 29
40 46 43 51 56 55 49 33 39 28 17 12 14 32 17 352 334 1 262 249 256 283 68 103 106 104 104 95 78 66 57 44 34 29 26 26 28 29 27 26 28 26 23
68 62 55 54 53 48 55 37 34 14 14 19 11 359 9 333 331 14 70 279 291 287 24 33 115 108 103 103 100 82 66 46 42 37 34 31 28 28 23 26 25 22 21
130 114 75 74 64 53 47 37 22 5 17 24 7 5 13 351 360 18 67 59 331 318 349 286 20 81 102 116 104 106 83 51 54 47 41 35 32 30 29 29 25 21 18
139 120 103 88 78 72 64 53 39 15 12 10 357 3 8 359 343 350 15 85 158 262 282 285 341 289 102 119 124 115 100 56 61 54 41 40 37 30 26 24 26 22 19
135 138 146 125 112 87 73 64 22 356 19 339 351 2 352 336 350 5 7 352 10 172 258 288 305 277 5 73 86 107 132 79 79 70 49 50 41 35 30 27 25 22 21
156 157 151 145 112 101 98 90 20 346 356 356 355 353 336 344 2 347 6 4 356 23 198 298 316 345 17 23 14 31 145 145 143 119 80 61 46 39 33 29 25 22 23
182 160 153 154 146 116 121 139 244 22 6 349 337 340 331 348 356 327 357 347 327 331 115 296 312 345 335 316 21 341 340 133 194 161 124 94 62 48 33 27 25 23 22
182 179 162 168 171 174 135 84 84 24 346 340 341 340 338 354 334 330 317 288 300 338 18 302 299 325 331 344 1 322 309 294 245 199 166 167 179 119 51 27 26 22 22
176 201 174 182 178 178 154 71 356 332 343 354 356 350 345 344 322 315 312 304 311 317 318 292 287 298 308 322 353 305 304 305 304 302 313 264 222 192 152 0 5 15 12
200 204 179 173 166 183 126 23 318 333 317 312 312 292 288 313 331 324 326 314 334 303 287 284 274 299 305 328 308 298 303 297 300 300 294 267 232 231 229 253 279 332 348
208 212 204 184 177 198 6 350 343 298 268 258 275 274 264 303 357 353 338 340 322 263 257 255 265 274 283 279 296 292 291 324 301 299 286 276 237 237 237 224 245 262 299
199 227 221 174 164 178 184 314 325 313 286 259 260 277 306 12 15 348 335 338 344 339 295 243 228 249 258 267 275 282 273 263 269 271 337 278 264 246 252 259 236 242 267
190 203 219 205 178 197 215 262 312 295 282 270 267 266 237 185 330 334 316 323 320 334 322 309 250 256 257 249 236 251 253 267 294 303 82 286 289 275 265 251 242 246 267
198 198 209 201 184 200 216 240 303 275 273 274 285 314 347 130 317 327 310 280 288 285 299 295 288 276 271 280 292 310 301 296 291 285 285 268 297 298 276 246 241 236 254
202 201 207 195 183 184 203 241 282 244 262 270 268 297 344 347 328 325 297 259 264 269 285 299 297 292 274 267 278 248 237 220 262 280 278 274 295 326 309 281 259 248 252